Location: Allie Creek
(37.5926°N, 89.8526°W)
Time: 20:07:04
(UTC+00:00)

OAO 3 Copernicus - Pass Details

Date: 26 September 2023
Orbit: 692 x 703 km, 35.0° (Epoch: 09 December)

Event Time Altitude Azimuth Distance (km) Brightness Sun altitude
Exits shadow 10:02:32 49° 212° (SSW) 888 4.5 -21.9°
Maximum altitude 10:03:26 57° 170° (S) 807 4.5 -21.8°
Drops below altitude 10° 10:08:21 10° 92° (E) 2,142 7.9 -20.8°
Sets 10:10:47 0° 88° (E) 3,061 9.1 -20.4°
